Location: Chateh
(58.6667°N, 118.6000°W)
Time: 06:22:50
(UTC+00:00)

Gurwin Techsat 1B - Pass Details

Date: 05 December 2023
Orbit: 810 x 813 km, 98.9° (Epoch: 04 March)

Event Time Altitude Azimuth Distance (km) Brightness Sun altitude
Rises 11:35:57 0° 18° (NNE) 3,352 12.2 -35.6°
Reaches altitude 10° 11:38:18 10° 19° (NNE) 2,416 11.4 -35.3°
Enters shadow 11:40:20 24° 22° (NNE) 1,642 10.4 -35.0°
